Location: Observatoire
(46.1952°N, 5.3391°E)
Time: 22:32:18
(UTC+01:00)

Tiros 1 despin weight - Pass Details

Date: 22 February 2026
Orbit: 556 x 593 km, 48.2° (Epoch: 7 March)

Event Time Altitude Azimuth Distance (km) Brightness Sun altitude
Rises 16:36:16 0° 273° (W) 2,741 ? 14.8°
Reaches altitude 10° 16:38:32 10° 277° (W) 1,842 ? 14.4°
Maximum altitude 16:42:43 65° 360° (N) 612 ? 13.8°
Drops below altitude 10° 16:46:53 10° 83° (E) 1,836 ? 13.2°
Sets 16:49:09 0° 86° (E) 2,732 ? 12.9°
